| time (UTC) | temp C | wind direction | speed KPH | gust KPH | rain 1hr cm | rain 24hr cm | rain mn cm | humidity % | barometer mb |
| 20260906204024 | 30 | 140 | 12.9 | 30.6 | 0.00 | 3.66 | 0.00 | 62 | 1016.5 |
| 20260906203527 | 29 | 184 | 14.5 | 30.6 | 0.00 | 3.66 | 0.00 | 63 | 1016.6 |
| 20260906203057 | 29 | 172 | 12.9 | 24.1 | 0.00 | 3.66 | 0.00 | 63 | 1016.7 |
| 20260906202524 | 29 | 196 | 12.9 | 25.7 | 0.00 | 3.66 | 0.00 | 64 | 1016.7 |
| 20260906202030 | 28 | 141 | 14.5 | 25.7 | 0.00 | 3.66 | 0.00 | 62 | 1016.8 |
| 20260906201554 | 28 | 180 | 12.9 | 22.5 | 0.00 | 3.66 | 0.00 | 63 | 1016.7 |
| 20260906201030 | 28 | 147 | 9.7 | 22.5 | 0.00 | 3.66 | 0.00 | 62 | 1016.8 |
| 20260906200526 | 28 | 178 | 12.9 | 25.7 | 0.00 | 3.66 | 0.00 | 64 | 1017.0 |
| 20260906200046 | 28 | 175 | 16.1 | 25.7 | 0.00 | 3.66 | 0.00 | 63 | 1016.9 |
| 20260906195524 | 28 | 151 | 9.7 | 24.1 | 0.00 | 3.66 | 0.00 | 64 | 1016.9 |
| 20260906195024 | 28 | 194 | 12.9 | 24.1 | 0.00 | 3.66 | 0.00 | 63 | 1016.9 |
| 20260906194546 | 28 | 141 | 11.3 | 25.7 | 0.00 | 3.66 | 0.00 | 64 | 1016.9 |
| 20260906194023 | 28 | 186 | 14.5 | 27.4 | 0.00 | 3.66 | 0.00 | 65 | 1017.0 |
| 20260906193525 | 28 | 136 | 14.5 | 27.4 | 0.00 | 3.66 | 0.00 | 65 | 1016.9 |
| 20260906193055 | 28 | 149 | 14.5 | 25.7 | 0.00 | 3.66 | 0.00 | 65 | 1017.0 |
| 20260906192527 | 28 | 175 | 12.9 | 25.7 | 0.00 | 3.66 | 0.00 | 66 | 1017.0 |
| 20260906192025 | 27 | 165 | 12.9 | 25.7 | 0.00 | 3.66 | 0.00 | 66 | 1017.0 |
| 20260906191553 | 27 | 195 | 14.5 | 29.0 | 0.00 | 3.66 | 0.00 | 66 | 1017.1 |
| 20260906191027 | 27 | 163 | 12.9 | 29.0 | 0.00 | 3.66 | 0.00 | 66 | 1017.2 |
| 20260906190526 | 27 | 172 | 17.7 | 30.6 | 0.00 | 3.66 | 0.00 | 67 | 1017.1 |
| 20260906190047 | 27 | 182 | 16.1 | 30.6 | 0.00 | 3.66 | 0.00 | 68 | 1017.1 |
| 20260906185524 | 27 | 153 | 16.1 | 25.7 | 0.00 | 3.66 | 0.00 | 67 | 1017.2 |
| 20260906185026 | 27 | 200 | 17.7 | 29.0 | 0.00 | 3.66 | 0.00 | 66 | 1017.4 |
| 20260906184555 | 27 | 194 | 16.1 | 29.0 | 0.00 | 3.66 | 0.00 | 69 | 1017.6 |
| 20260906184027 | 27 | 179 | 16.1 | 37.0 | 0.00 | 3.66 | 0.00 | 67 | 1017.6 |
| 20260906183527 | 26 | 167 | 17.7 | 37.0 | 0.00 | 3.66 | 0.00 | 69 | 1017.8 |
| 20260906183051 | 26 | 188 | 19.3 | 37.0 | 0.00 | 3.66 | 0.00 | 69 | 1017.9 |
| 20260906182529 | 26 | 170 | 19.3 | 37.0 | 0.00 | 3.66 | 0.00 | 69 | 1017.9 |
| 20260906182029 | 26 | 187 | 17.7 | 29.0 | 0.00 | 3.66 | 0.00 | 69 | 1018.0 |
| 20260906181553 | 26 | 221 | 16.1 | 33.8 | 0.00 | 3.66 | 0.00 | 70 | 1018.0 |
| 20260906181029 | 26 | 203 | 20.9 | 33.8 | 0.00 | 3.66 | 0.00 | 70 | 1018.1 |
| 20260906180528 | 26 | 209 | 17.7 | 32.2 | 0.00 | 3.66 | 0.00 | 70 | 1018.1 |
| 20260906180103 | 26 | 193 | 19.3 | 32.2 | 0.00 | 3.66 | 0.00 | 70 | 1018.1 |
| 20260906175525 | 26 | 197 | 16.1 | 29.0 | 0.00 | 3.66 | 0.00 | 71 | 1018.2 |
| 20260906175028 | 25 | 190 | 19.3 | 33.8 | 0.00 | 3.66 | 0.00 | 71 | 1018.2 |
| 20260906174544 | 25 | 166 | 19.3 | 33.8 | 0.00 | 3.66 | 0.00 | 70 | 1018.4 |
| 20260906174028 | 25 | 177 | 20.9 | 32.2 | 0.00 | 3.66 | 0.00 | 70 | 1018.4 |
| 20260906173528 | 25 | 176 | 17.7 | 27.4 | 0.00 | 3.66 | 0.00 | 71 | 1018.4 |
| 20260906173047 | 25 | 180 | 14.5 | 25.7 | 0.00 | 3.66 | 0.00 | 71 | 1018.4 |
| 20260906172527 | 25 | 190 | 17.7 | 29.0 | 0.00 | 3.66 | 0.00 | 71 | 1018.4 |
| 20260906172027 | 25 | 182 | 17.7 | 29.0 | 0.00 | 3.66 | 0.00 | 70 | 1018.4 |
| 20260906171556 | 25 | 185 | 17.7 | 29.0 | 0.00 | 3.66 | 0.00 | 70 | 1018.5 |
| 20260906171025 | 25 | 173 | 14.5 | 30.6 | 0.00 | 3.66 | 0.00 | 71 | 1018.5 |
| 20260906170526 | 24 | 149 | 17.7 | 30.6 | 0.00 | 3.66 | 0.00 | 71 | 1018.6 |
| 20260906170053 | 24 | 186 | 17.7 | 27.4 | 0.00 | 3.66 | 0.00 | 71 | 1018.7 |
| 20260906165527 | 24 | 174 | 17.7 | 29.0 | 0.00 | 3.66 | 0.00 | 71 | 1018.8 |
| 20260906165025 | 24 | 178 | 14.5 | 29.0 | 0.00 | 3.66 | 0.00 | 72 | 1018.8 |
| 20260906164554 | 24 | 190 | 14.5 | 24.1 | 0.00 | 3.66 | 0.00 | 72 | 1018.8 |
| 20260906164030 | 24 | 163 | 12.9 | 24.1 | 0.00 | 3.66 | 0.00 | 73 | 1018.7 |
| 20260906163526 | 24 | 198 | 16.1 | 24.1 | 0.00 | 3.66 | 0.00 | 72 | 1018.8 |
| 20260906163056 | 24 | 191 | 14.5 | 24.1 | 0.00 | 3.66 | 0.00 | 72 | 1018.8 |
| 20260906162526 | 24 | 192 | 14.5 | 24.1 | 0.00 | 3.66 | 0.00 | 71 | 1018.8 |
| 20260906162024 | 24 | 190 | 9.7 | 20.9 | 0.00 | 3.66 | 0.00 | 73 | 1019.0 |
| 20260906161546 | 23 | 196 | 12.9 | 20.9 | 0.00 | 3.66 | 0.00 | 72 | 1018.9 |
| 20260906161025 | 23 | 169 | 12.9 | 19.3 | 0.00 | 3.66 | 0.00 | 74 | 1018.9 |
| 20260906160525 | 23 | 167 | 9.7 | 20.9 | 0.00 | 3.66 | 0.00 | 74 | 1018.9 |
| 20260906160052 | 23 | 163 | 11.3 | 20.9 | 0.00 | 3.66 | 0.00 | 74 | 1018.8 |
| 20260906155527 | 23 | 181 | 12.9 | 19.3 | 0.00 | 3.66 | 0.00 | 74 | 1018.9 |
| 20260906155027 | 23 | 187 | 12.9 | 24.1 | 0.00 | 3.66 | 0.00 | 74 | 1018.8 |
| 20260906154552 | 22 | 186 | 12.9 | 24.1 | 0.00 | 3.66 | 0.00 | 74 | 1018.7 |
| 20260906154028 | 22 | 150 | 8.0 | 22.5 | 0.00 | 3.66 | 0.00 | 76 | 1018.7 |
| 20260906153526 | 22 | 169 | 12.9 | 22.5 | 0.00 | 3.66 | 0.00 | 75 | 1018.8 |
| 20260906153046 | 22 | 169 | 12.9 | 22.5 | 0.00 | 3.66 | 0.00 | 75 | 1018.7 |
| 20260906152529 | 22 | 184 | 12.9 | 22.5 | 0.00 | 3.66 | 0.00 | 76 | 1018.8 |
| 20260906152027 | 22 | 164 | 11.3 | 20.9 | 0.00 | 3.66 | 0.00 | 76 | 1018.8 |
| 20260906151546 | 22 | 173 | 11.3 | 19.3 | 0.00 | 3.66 | 0.00 | 76 | 1019.0 |
| 20260906151025 | 21 | 185 | 11.3 | 20.9 | 0.00 | 3.66 | 0.00 | 76 | 1019.1 |
| 20260906150523 | 21 | 178 | 14.5 | 22.5 | 0.00 | 3.66 | 0.00 | 76 | 1019.2 |
| 20260906145525 | 21 | 164 | 12.9 | 22.5 | 0.00 | 3.66 | 0.00 | 76 | 1019.2 |
| 20260906145024 | 21 | 165 | 12.9 | 22.5 | 0.00 | 3.66 | 0.00 | 76 | 1019.2 |
| 20260906144548 | 21 | 165 | 12.9 | 22.5 | 0.00 | 3.66 | 0.00 | 77 | 1019.3 |
| 20260906144024 | 21 | 201 | 12.9 | 20.9 | 0.00 | 3.66 | 0.00 | 77 | 1019.3 |
| 20260906143525 | 21 | 186 | 12.9 | 20.9 | 0.00 | 3.66 | 0.00 | 78 | 1019.5 |
| 20260906143051 | 21 | 190 | 9.7 | 17.7 | 0.00 | 3.66 | 0.00 | 78 | 1019.4 |
| 20260906142524 | 20 | 183 | 11.3 | 17.7 | 0.00 | 3.66 | 0.00 | 78 | 1019.2 |
| 20260906142029 | 20 | 178 | 11.3 | 16.1 | 0.00 | 3.66 | 0.00 | 78 | 1019.2 |
| 20260906141556 | 20 | 186 | 8.0 | 14.5 | 0.00 | 3.66 | 0.00 | 80 | 1019.1 |
| 20260906141027 | 20 | 208 | 8.0 | 14.5 | 0.00 | 3.66 | 0.00 | 81 | 1019.1 |
| 20260906140526 | 19 | 168 | 6.4 | 11.3 | 0.00 | 3.66 | 0.00 | 83 | 1019.1 |
| 20260906140054 | 18 | 189 | 6.4 | 11.3 | 0.00 | 3.66 | 0.00 | 83 | 1019.1 |
| 20260906135526 | 18 | 191 | 6.4 | 11.3 | 0.00 | 3.66 | 0.00 | 84 | 1019.1 |
| 20260906135025 | 18 | 224 | 6.4 | 11.3 | 0.00 | 3.66 | 0.00 | 84 | 1019.1 |
| 20260906134546 | 18 | 210 | 6.4 | 11.3 | 0.00 | 3.66 | 0.00 | 84 | 1019.3 |
| 20260906134026 | 17 | 232 | 4.8 | 8.0 | 0.00 | 3.66 | 0.00 | 85 | 1019.1 |
| 20260906133528 | 17 | 221 | 4.8 | 8.0 | 0.00 | 3.66 | 0.00 | 85 | 1019.2 |
| 20260906133109 | 17 | 234 | 1.6 | 4.8 | 0.00 | 3.66 | 0.00 | 85 | 1019.1 |
| 20260906132526 | 17 | 234 | 1.6 | 6.4 | 0.00 | 3.66 | 0.00 | 86 | 1019.1 |
| 20260906132026 | 17 | 234 | 0.0 | 6.4 | 0.00 | 3.66 | 0.00 | 86 | 1019.0 |
| 20260906131553 | 16 | 234 | 3.2 | 8.0 | 0.00 | 3.66 | 0.00 | 86 | 1019.0 |
| 20260906131027 | 16 | 234 | 4.8 | 8.0 | 0.00 | 3.66 | 0.00 | 86 | 1019.0 |
| 20260906130526 | 16 | 207 | 0.0 | 3.2 | 0.00 | 3.66 | 0.00 | 86 | 1018.9 |
| 20260906130104 | 16 | 0 | 0.0 | 3.2 | 0.00 | 3.66 | 0.00 | 86 | 1019.0 |
| 20260906125526 | 16 | 0 | 0.0 | 8.0 | 0.00 | 3.66 | 0.00 | 86 | 1018.8 |
| 20260906125027 | 15 | 207 | 1.6 | 8.0 | 0.00 | 3.66 | 0.00 | 86 | 1018.8 |
| 20260906124546 | 15 | 207 | 4.8 | 8.0 | 0.00 | 3.66 | 0.00 | 85 | 1018.8 |
| 20260906124030 | 15 | 164 | 4.8 | 8.0 | 0.00 | 3.66 | 0.00 | 85 | 1018.8 |
| 20260906123525 | 15 | 164 | 1.6 | 6.4 | 0.00 | 3.66 | 0.00 | 84 | 1018.7 |
| 20260906123045 | 15 | 164 | 1.6 | 6.4 | 0.00 | 3.66 | 0.00 | 84 | 1018.5 |
| 20260906122523 | 15 | 0 | 0.0 | 6.4 | 0.00 | 3.66 | 0.00 | 84 | 1018.4 |
| 20260906122023 | 15 | 0 | 0.0 | 6.4 | 0.00 | 3.66 | 0.00 | 83 | 1018.4 |
| 20260906121549 | 16 | 0 | 0.0 | 6.4 | 0.00 | 3.66 | 0.00 | 83 | 1018.1 |
| 20260906121023 | 16 | 0 | 0.0 | 6.4 | 0.00 | 3.66 | 0.00 | 83 | 1018.1 |
| 20260906120526 | 16 | 164 | 4.8 | 8.0 | 0.00 | 3.66 | 0.00 | 83 | 1017.9 |
| 20260906120046 | 16 | 164 | 3.2 | 9.7 | 0.00 | 3.66 | 0.00 | 83 | 1017.9 |
| 20260906115525 | 16 | 164 | 6.4 | 9.7 | 0.00 | 3.66 | 0.00 | 83 | 1018.0 |
| 20260906115025 | 16 | 164 | 4.8 | 9.7 | 0.00 | 3.66 | 0.00 | 83 | 1017.9 |
| 20260906114550 | 16 | 164 | 6.4 | 9.7 | 0.00 | 3.66 | 0.00 | 82 | 1017.9 |
| 20260906114028 | 16 | 164 | 6.4 | 9.7 | 0.00 | 3.66 | 0.00 | 82 | 1017.9 |
| 20260906113525 | 16 | 164 | 4.8 | 11.3 | 0.00 | 3.66 | 0.00 | 82 | 1018.0 |
| 20260906113056 | 16 | 144 | 4.8 | 12.9 | 0.00 | 3.66 | 0.00 | 81 | 1018.1 |
| 20260906112523 | 16 | 118 | 6.4 | 14.5 | 0.00 | 3.66 | 0.00 | 81 | 1018.0 |
| 20260906112023 | 16 | 115 | 8.0 | 14.5 | 0.00 | 3.66 | 0.00 | 81 | 1018.0 |
| 20260906111608 | 16 | 105 | 9.7 | 14.5 | 0.00 | 3.66 | 0.00 | 82 | 1017.8 |
| 20260906111026 | 16 | 119 | 4.8 | 9.7 | 0.00 | 3.66 | 0.00 | 81 | 1018.0 |
| 20260906110524 | 16 | 152 | 3.2 | 8.0 | 0.00 | 3.66 | 0.00 | 80 | 1018.1 |
| 20260906110044 | 17 | 152 | 4.8 | 8.0 | 0.00 | 3.66 | 0.00 | 80 | 1018.0 |
| 20260906105525 | 17 | 152 | 3.2 | 14.5 | 0.00 | 3.66 | 0.00 | 80 | 1017.9 |
| 20260906105030 | 17 | 152 | 6.4 | 14.5 | 0.00 | 3.66 | 0.00 | 80 | 1018.1 |
| 20260906104553 | 17 | 116 | 6.4 | 17.7 | 0.00 | 3.66 | 0.00 | 79 | 1017.8 |
| 20260906104023 | 17 | 136 | 9.7 | 17.7 | 0.00 | 3.66 | 0.00 | 79 | 1017.9 |
| 20260906103525 | 17 | 131 | 11.3 | 16.1 | 0.00 | 3.66 | 0.00 | 79 | 1017.9 |
| 20260906103047 | 17 | 119 | 9.7 | 16.1 | 0.00 | 3.66 | 0.00 | 79 | 1017.8 |
| 20260906102528 | 17 | 116 | 9.7 | 17.7 | 0.00 | 3.66 | 0.00 | 78 | 1017.5 |
| 20260906102026 | 17 | 130 | 9.7 | 17.7 | 0.00 | 3.66 | 0.00 | 78 | 1017.5 |
| 20260906101556 | 17 | 104 | 12.9 | 19.3 | 0.00 | 3.66 | 0.00 | 77 | 1017.3 |
| 20260906101024 | 18 | 107 | 12.9 | 22.5 | 0.00 | 3.66 | 0.00 | 77 | 1017.1 |
| 20260906100526 | 18 | 105 | 14.5 | 22.5 | 0.00 | 3.66 | 0.00 | 77 | 1017.1 |
| 20260906100051 | 18 | 120 | 12.9 | 19.3 | 0.00 | 3.66 | 0.00 | 77 | 1017.1 |
| 20260906095531 | 18 | 119 | 12.9 | 19.3 | 0.00 | 3.66 | 0.00 | 76 | 1017.1 |
| 20260906095025 | 18 | 95 | 11.3 | 22.5 | 0.00 | 3.66 | 0.00 | 76 | 1017.1 |
| 20260906094552 | 18 | 93 | 14.5 | 22.5 | 0.00 | 3.66 | 0.00 | 75 | 1016.8 |
| 20260906094026 | 18 | 96 | 16.1 | 24.1 | 0.00 | 3.66 | 0.00 | 75 | 1017.0 |
| 20260906093526 | 18 | 95 | 16.1 | 27.4 | 0.00 | 3.66 | 0.00 | 75 | 1016.9 |
| 20260906093046 | 18 | 92 | 14.5 | 27.4 | 0.00 | 3.66 | 0.00 | 74 | 1017.1 |
| 20260906092527 | 18 | 105 | 17.7 | 27.4 | 0.00 | 3.66 | 0.00 | 74 | 1017.2 |
| 20260906092024 | 19 | 105 | 16.1 | 24.1 | 0.00 | 3.66 | 0.00 | 74 | 1017.2 |
| 20260906091548 | 19 | 96 | 17.7 | 24.1 | 0.00 | 3.66 | 0.00 | 74 | 1017.2 |
| 20260906091025 | 19 | 90 | 17.7 | 29.0 | 0.00 | 3.66 | 0.00 | 74 | 1017.3 |
| 20260906090529 | 19 | 109 | 17.7 | 29.0 | 0.00 | 3.66 | 0.00 | 74 | 1017.3 |
| 20260906090052 | 19 | 113 | 17.7 | 29.0 | 0.00 | 3.66 | 0.00 | 74 | 1017.1 |
| 20260906085523 | 19 | 105 | 16.1 | 24.1 | 0.00 | 3.66 | 0.00 | 74 | 1017.2 |
| 20260906085023 | 18 | 97 | 14.5 | 25.7 | 0.00 | 3.66 | 0.00 | 74 | 1017.1 |
| 20260906084552 | 18 | 90 | 16.1 | 25.7 | 0.00 | 3.66 | 0.00 | 74 | 1017.0 |
| 20260906084027 | 18 | 101 | 17.7 | 24.1 | 0.00 | 3.66 | 0.00 | 74 | 1017.1 |
| 20260906083526 | 18 | 95 | 17.7 | 24.1 | 0.00 | 3.66 | 0.00 | 74 | 1017.0 |
| 20260906083051 | 18 | 95 | 16.1 | 24.1 | 0.00 | 3.66 | 0.00 | 74 | 1017.0 |
| 20260906082527 | 18 | 94 | 16.1 | 22.5 | 0.00 | 3.66 | 0.00 | 74 | 1017.0 |
| 20260906082026 | 18 | 90 | 16.1 | 25.7 | 0.00 | 3.66 | 0.00 | 74 | 1017.0 |
| 20260906081546 | 19 | 106 | 17.7 | 29.0 | 0.00 | 3.66 | 0.00 | 73 | 1017.0 |
| 20260906081026 | 19 | 111 | 19.3 | 29.0 | 0.00 | 3.66 | 0.00 | 73 | 1017.1 |
| 20260906080525 | 19 | 98 | 16.1 | 25.7 | 0.00 | 3.66 | 0.00 | 73 | 1017.2 |
| 20260906075524 | 19 | 113 | 17.7 | 27.4 | 0.00 | 3.66 | 0.00 | 74 | 1017.5 |
| 20260906075023 | 18 | 113 | 17.7 | 25.7 | 0.00 | 3.66 | 0.00 | 75 | 1017.7 |
| 20260906074554 | 18 | 116 | 12.9 | 27.4 | 0.00 | 3.66 | 0.00 | 76 | 1017.7 |
| 20260906074026 | 18 | 138 | 17.7 | 27.4 | 0.00 | 3.66 | 0.00 | 76 | 1017.6 |
| 20260906073525 | 18 | 113 | 19.3 | 25.7 | 0.00 | 3.66 | 0.00 | 77 | 1017.5 |
| 20260906073049 | 18 | 111 | 16.1 | 24.1 | 0.00 | 3.66 | 0.00 | 77 | 1017.6 |
| 20260906072526 | 18 | 119 | 17.7 | 24.1 | 0.00 | 3.66 | 0.00 | 78 | 1017.8 |
| 20260906072024 | 18 | 113 | 16.1 | 25.7 | 0.00 | 3.66 | 0.00 | 79 | 1017.9 |
| 20260906071551 | 18 | 125 | 16.1 | 25.7 | 0.00 | 3.66 | 0.00 | 79 | 1018.2 |
| 20260906071023 | 17 | 126 | 14.5 | 24.1 | 0.00 | 3.66 | 0.00 | 80 | 1018.7 |
| 20260906070523 | 18 | 112 | 14.5 | 24.1 | 0.00 | 3.66 | 0.00 | 79 | 1018.9 |
| 20260906070057 | 18 | 141 | 16.1 | 27.4 | 0.00 | 3.66 | 0.00 | 79 | 1018.6 |
| 20260906065525 | 18 | 167 | 16.1 | 27.4 | 0.00 | 3.66 | 0.00 | 78 | 1018.3 |
| 20260906065026 | 18 | 138 | 17.7 | 24.1 | 0.00 | 3.66 | 0.00 | 79 | 1018.2 |
| 20260906064550 | 18 | 172 | 16.1 | 22.5 | 0.00 | 3.66 | 0.00 | 79 | 1018.4 |
| 20260906064033 | 18 | 150 | 12.9 | 20.9 | 0.00 | 3.66 | 0.00 | 79 | 1018.5 |
| 20260906063526 | 18 | 138 | 14.5 | 24.1 | 0.00 | 3.66 | 0.00 | 79 | 1018.4 |
| 20260906063046 | 18 | 127 | 14.5 | 24.1 | 0.00 | 3.66 | 0.00 | 79 | 1018.2 |
| 20260906062524 | 17 | 113 | 14.5 | 25.7 | 0.00 | 3.66 | 0.00 | 80 | 1018.1 |
| 20260906062029 | 18 | 107 | 16.1 | 30.6 | 0.00 | 3.66 | 0.00 | 79 | 1018.0 |
| 20260906061545 | 17 | 128 | 19.3 | 30.6 | 0.00 | 3.66 | 0.00 | 79 | 1018.0 |
| 20260906061024 | 17 | 116 | 22.5 | 30.6 | 0.03 | 3.66 | 0.00 | 80 | 1018.2 |
| 20260906060524 | 17 | 121 | 20.9 | 38.6 | 0.03 | 3.66 | 0.00 | 80 | 1018.5 |
| 20260906060054 | 18 | 123 | 20.9 | 46.7 | 0.05 | 3.66 | 0.00 | 79 | 1018.9 |
| 20260906055522 | 18 | 145 | 29.0 | 46.7 | 0.08 | 3.66 | 3.66 | 79 | 1018.9 |
| 20260906055026 | 18 | 115 | 24.1 | 41.8 | 0.08 | 3.66 | 3.66 | 79 | 1018.7 |
| 20260906054559 | 18 | 126 | 29.0 | 41.8 | 0.08 | 3.66 | 3.66 | 79 | 1019.1 |
| 20260906054024 | 17 | 107 | 29.0 | 41.8 | 0.10 | 3.66 | 3.66 | 80 | 1018.8 |
| 20260906053525 | 17 | 121 | 27.4 | 41.8 | 0.10 | 3.66 | 3.66 | 81 | 1018.8 |
| 20260906053040 | 17 | 106 | 30.6 | 41.8 | 0.10 | 3.66 | 3.66 | 81 | 1019.0 |
| 20260906052524 | 17 | 123 | 25.7 | 41.8 | 0.13 | 3.66 | 3.66 | 80 | 1018.7 |
| 20260906052023 | 17 | 109 | 27.4 | 49.9 | 0.25 | 3.66 | 3.66 | 81 | 1018.3 |
| 20260906051605 | 17 | 82 | 37.0 | 49.9 | 0.86 | 3.66 | 3.66 | 81 | 1017.6 |
| 20260906051026 | 17 | 107 | 37.0 | 49.9 | 1.83 | 3.63 | 3.63 | 79 | 1017.9 |
| 20260906050525 | 18 | 94 | 32.2 | 46.7 | 2.34 | 3.63 | 3.63 | 79 | 1018.7 |
| 20260906050047 | 17 | 96 | 29.0 | 51.5 | 2.36 | 3.61 | 3.61 | 81 | 1018.9 |
| 20260906045525 | 18 | 119 | 30.6 | 51.5 | 2.46 | 3.58 | 3.58 | 82 | 1019.2 |
| 20260906045025 | 18 | 129 | 27.4 | 35.4 | 2.62 | 3.58 | 3.58 | 82 | 1019.9 |
| 20260906044552 | 19 | 129 | 22.5 | 45.1 | 2.74 | 3.56 | 3.56 | 80 | 1019.5 |
| 20260906044027 | 20 | 116 | 24.1 | 53.1 | 2.82 | 3.56 | 3.56 | 78 | 1019.1 |
| 20260906043523 | 20 | 80 | 37.0 | 53.1 | 2.84 | 3.56 | 3.56 | 71 | 1018.3 |
| 20260906043049 | 18 | 67 | 27.4 | 43.5 | 2.90 | 3.56 | 3.56 | 75 | 1017.8 |
| 20260906042526 | 18 | 87 | 20.9 | 48.3 | 2.95 | 3.53 | 3.53 | 80 | 1018.4 |
| 20260906042026 | 18 | 62 | 30.6 | 48.3 | 2.82 | 3.33 | 3.33 | 80 | 1019.3 |
| 20260906041545 | 18 | 88 | 24.1 | 40.2 | 2.34 | 2.64 | 2.64 | 78 | 1019.8 |
| 20260906041337 | 18 | 111 | 22.5 | 32.2 | 1.60 | 1.68 | 1.68 | 83 | 1021.1 |
| 20260906040526 | 18 | 348 | 19.3 | 37.0 | 1.30 | 1.30 | 1.30 | 85 | 1020.0 |
| 20260906040123 | 18 | 291 | 22.5 | 41.8 | 1.22 | 1.22 | 1.22 | 85 | 1019.6 |
| 20260906035525 | 18 | 344 | 32.2 | 43.5 | 1.12 | 1.12 | 1.12 | 84 | 1019.0 |
| 20260906035026 | 18 | 331 | 33.8 | 43.5 | 0.94 | 0.94 | 0.94 | 84 | 1018.9 |
| 20260906034604 | 18 | 329 | 33.8 | 49.9 | 0.79 | 0.79 | 0.79 | 83 | 1019.5 |
| 20260906034023 | 18 | 319 | 38.6 | 49.9 | 0.74 | 0.74 | 0.74 | 83 | 1019.3 |
| 20260906033526 | 18 | 310 | 35.4 | 53.1 | 0.71 | 0.71 | 0.71 | 83 | 1019.2 |
| 20260906033104 | 19 | 292 | 32.2 | 53.1 | 0.64 | 0.64 | 0.64 | 83 | 1019.4 |
| 20260906032530 | 19 | 328 | 33.8 | 64.4 | 0.56 | 0.56 | 0.56 | 83 | 1018.7 |
| 20260906032026 | 19 | 333 | 48.3 | 64.4 | 0.51 | 0.51 | 0.51 | 82 | 1018.1 |
| 20260906031544 | 20 | 286 | 37.0 | 51.5 | 0.28 | 0.28 | 0.28 | 82 | 1018.2 |
| 20260906031024 | 20 | 304 | 27.4 | 41.8 | 0.08 | 0.08 | 0.08 | 81 | 1018.4 |
| 20260906030525 | 21 | 294 | 4.8 | 27.4 | 0.00 | 0.00 | 0.00 | 81 | 1018.7 |
| 20260906030045 | 21 | 317 | 12.9 | 29.0 | 0.00 | 0.00 | 0.00 | 81 | 1018.4 |
| 20260906025524 | 21 | 350 | 20.9 | 32.2 | 0.00 | 0.00 | 0.00 | 79 | 1017.9 |
| 20260906025024 | 21 | 327 | 20.9 | 32.2 | 0.00 | 0.00 | 0.00 | 78 | 1017.6 |
| 20260906024603 | 21 | 336 | 25.7 | 35.4 | 0.00 | 0.00 | 0.00 | 78 | 1017.5 |
| 20260906024027 | 21 | 22 | 25.7 | 35.4 | 0.00 | 0.00 | 0.00 | 79 | 1017.6 |
| 20260906023526 | 21 | 317 | 16.1 | 24.1 | 0.00 | 0.00 | 0.00 | 78 | 1018.1 |
| 20260906023052 | 21 | 22 | 9.7 | 19.3 | 0.00 | 0.00 | 0.00 | 78 | 1017.6 |
| 20260906022526 | 21 | 42 | 12.9 | 19.3 | 0.00 | 0.00 | 0.00 | 78 | 1017.0 |
| 20260906022025 | 21 | 68 | 11.3 | 17.7 | 0.00 | 0.00 | 0.00 | 79 | 1017.1 |
| 20260906021546 | 21 | 46 | 9.7 | 17.7 | 0.00 | 0.00 | 0.00 | 79 | 1017.3 |
| 20260906021024 | 21 | 56 | 11.3 | 22.5 | 0.00 | 0.00 | 0.00 | 79 | 1017.3 |
| 20260906020524 | 21 | 13 | 14.5 | 22.5 | 0.00 | 0.00 | 0.00 | 78 | 1017.3 |
| 20260906020053 | 21 | 355 | 12.9 | 19.3 | 0.00 | 0.00 | 0.00 | 77 | 1017.3 |
| 20260906015526 | 21 | 331 | 12.9 | 33.8 | 0.00 | 0.00 | 0.00 | 76 | 1017.1 |
| 20260906015026 | 21 | 346 | 14.5 | 35.4 | 0.00 | 0.00 | 0.00 | 76 | 1017.0 |
| 20260906014546 | 21 | 339 | 24.1 | 37.0 | 0.00 | 0.00 | 0.00 | 74 | 1016.7 |
| 20260906014025 | 22 | 335 | 27.4 | 37.0 | 0.00 | 0.00 | 0.00 | 71 | 1016.9 |
| 20260906013526 | 23 | 320 | 19.3 | 29.0 | 0.00 | 0.00 | 0.00 | 66 | 1017.0 |
| 20260906013044 | 23 | 286 | 6.4 | 41.8 | 0.00 | 0.00 | 0.00 | 65 | 1017.2 |
| 20260906012527 | 22 | 360 | 24.1 | 46.7 | 0.00 | 0.00 | 0.00 | 68 | 1017.2 |
| 20260906012025 | 22 | 340 | 30.6 | 46.7 | 0.00 | 0.00 | 0.00 | 68 | 1017.1 |
| 20260906011545 | 23 | 307 | 30.6 | 38.6 | 0.00 | 0.00 | 0.00 | 66 | 1017.5 |
| 20260906011026 | 25 | 360 | 14.5 | 25.7 | 0.00 | 0.00 | 0.00 | 58 | 1017.5 |
| 20260906010523 | 25 | 221 | 8.0 | 35.4 | 0.00 | 0.00 | 0.00 | 58 | 1016.9 |
| 20260906010052 | 25 | 194 | 16.1 | 38.6 | 0.00 | 0.00 | 0.00 | 58 | 1016.2 |
| 20260906005524 | 26 | 179 | 20.9 | 38.6 | 0.00 | 0.00 | 0.00 | 58 | 1015.5 |
| 20260906005024 | 26 | 157 | 24.1 | 41.8 | 0.00 | 0.00 | 0.00 | 58 | 1015.2 |
| 20260906004546 | 26 | 161 | 27.4 | 49.9 | 0.00 | 0.00 | 0.00 | 57 | 1014.7 |
| 20260906004027 | 26 | 137 | 25.7 | 48.3 | 0.00 | 0.00 | 0.00 | 56 | 1014.9 |
| 20260906003524 | 27 | 146 | 30.6 | 56.3 | 0.00 | 0.00 | 0.00 | 55 | 1014.9 |
| 20260906003048 | 26 | 139 | 37.0 | 56.3 | 0.00 | 0.00 | 0.00 | 56 | 1015.0 |
| 20260906002525 | 26 | 170 | 30.6 | 57.9 | 0.00 | 0.00 | 0.00 | 56 | 1014.9 |
| 20260906002025 | 26 | 169 | 33.8 | 57.9 | 0.00 | 0.00 | 0.00 | 56 | 1014.8 |
| 20260906001547 | 28 | 174 | 38.6 | 53.1 | 0.00 | 0.00 | 0.00 | 53 | 1015.2 |
| 20260906001024 | 31 | 132 | 29.0 | 45.1 | 0.00 | 0.00 | 0.00 | 45 | 1014.7 |
| 20260906000523 | 31 | 121 | 32.2 | 45.1 | 0.00 | 0.00 | 0.00 | 45 | 1014.6 |
| 20260906000053 | 31 | 132 | 30.6 | 45.1 | 0.00 | 0.00 | 0.00 | 45 | 1014.7 |
| 20260905235523 | 31 | 128 | 33.8 | 45.1 | 0.00 | 0.00 | 0.00 | 45 | 1014.5 |
| 20260905235026 | 31 | 106 | 27.4 | 41.8 | 0.00 | 0.00 | 0.00 | 45 | 1013.9 |
| 20260905234547 | 31 | 115 | 30.6 | 41.8 | 0.00 | 0.00 | 0.00 | 45 | 1013.8 |
| 20260905234024 | 31 | 117 | 27.4 | 41.8 | 0.00 | 0.00 | 0.00 | 45 | 1013.9 |
| 20260905233526 | 31 | 117 | 25.7 | 40.2 | 0.00 | 0.00 | 0.00 | 46 | 1013.9 |
| 20260905233055 | 31 | 130 | 27.4 | 43.5 | 0.00 | 0.00 | 0.00 | 46 | 1013.9 |
| 20260905232525 | 31 | 119 | 29.0 | 43.5 | 0.00 | 0.00 | 0.00 | 46 | 1013.9 |
| 20260905232024 | 31 | 124 | 25.7 | 38.6 | 0.00 | 0.00 | 0.00 | 47 | 1013.9 |
| 20260905231546 | 32 | 111 | 29.0 | 40.2 | 0.00 | 0.00 | 0.00 | 47 | 1014.2 |
| 20260905231026 | 32 | 122 | 22.5 | 40.2 | 0.00 | 0.00 | 0.00 | 47 | 1014.2 |
| 20260905230523 | 32 | 118 | 27.4 | 40.2 | 0.00 | 0.00 | 0.00 | 47 | 1014.1 |
| 20260905225524 | 32 | 127 | 25.7 | 49.9 | 0.00 | 0.00 | 0.00 | 46 | 1014.0 |
| 20260905225024 | 32 | 96 | 33.8 | 51.5 | 0.00 | 0.00 | 0.00 | 46 | 1014.0 |
| 20260905224610 | 32 | 129 | 27.4 | 51.5 | 0.00 | 0.00 | 0.00 | 45 | 1013.9 |
| 20260905224024 | 33 | 130 | 29.0 | 46.7 | 0.00 | 0.00 | 0.00 | 44 | 1013.8 |
| 20260905223525 | 34 | 139 | 27.4 | 41.8 | 0.00 | 0.00 | 0.00 | 42 | 1013.9 |
| 20260905223047 | 33 | 127 | 30.6 | 41.8 | 0.00 | 0.00 | 0.00 | 43 | 1014.0 |
| 20260905222528 | 32 | 126 | 25.7 | 37.0 | 0.00 | 0.00 | 0.00 | 44 | 1013.9 |
| 20260905222024 | 32 | 131 | 25.7 | 37.0 | 0.00 | 0.00 | 0.00 | 43 | 1013.9 |
| 20260905221543 | 32 | 139 | 27.4 | 40.2 | 0.00 | 0.00 | 0.00 | 43 | 1013.8 |
| 20260905221024 | 32 | 123 | 25.7 | 43.5 | 0.00 | 0.00 | 0.00 | 43 | 1014.1 |
| 20260905220523 | 32 | 138 | 25.7 | 43.5 | 0.00 | 0.00 | 0.00 | 43 | 1014.2 |
| 20260905220048 | 32 | 117 | 29.0 | 43.5 | 0.00 | 0.00 | 0.00 | 43 | 1014.2 |
| 20260905215527 | 33 | 123 | 25.7 | 41.8 | 0.00 | 0.00 | 0.00 | 42 | 1014.2 |
| 20260905215025 | 33 | 150 | 22.5 | 40.2 | 0.00 | 0.00 | 0.00 | 42 | 1014.2 |
| 20260905214551 | 33 | 118 | 25.7 | 45.1 | 0.00 | 0.00 | 0.00 | 42 | 1014.3 |
| 20260905214026 | 33 | 140 | 25.7 | 45.1 | 0.00 | 0.00 | 0.00 | 41 | 1014.3 |
| 20260905213526 | 33 | 127 | 27.4 | 43.5 | 0.00 | 0.00 | 0.00 | 41 | 1014.5 |
| 20260905213101 | 33 | 118 | 25.7 | 41.8 | 0.00 | 0.00 | 0.00 | 41 | 1014.7 |
| 20260905212533 | 35 | 138 | 22.5 | 46.7 | 0.00 | 0.00 | 0.00 | 40 | 1014.7 |
| 20260905212026 | 35 | 162 | 27.4 | 45.1 | 0.00 | 0.00 | 0.00 | 39 | 1014.9 |
| 20260905211549 | 35 | 119 | 24.1 | 45.1 | 0.00 | 0.00 | 0.00 | 39 | 1014.8 |
| 20260905211023 | 35 | 136 | 30.6 | 41.8 | 0.00 | 0.00 | 0.00 | 39 | 1014.9 |
| 20260905210524 | 34 | 121 | 27.4 | 37.0 | 0.00 | 0.00 | 0.00 | 39 | 1015.1 |
| 20260905210051 | 33 | 142 | 25.7 | 41.8 | 0.00 | 0.00 | 0.00 | 41 | 1015.1 |
| 20260905205525 | 34 | 119 | 22.5 | 41.8 | 0.00 | 0.00 | 0.00 | 40 | 1015.1 |
| 20260905205025 | 35 | 125 | 29.0 | 41.8 | 0.00 | 0.00 | 0.00 | 40 | 1015.2 |
| 20260905204552 | 35 | 173 | 22.5 | 37.0 | 0.00 | 0.00 | 0.00 | 38 | 1015.2 |